[[{"header":{"parameterUnit":"m.s-1","parameterCategory":1,"la1":30.2991,"la2":30.254,"lo1":-89.0895,"lo2":-89.0444,"dy":0.0017,"dx":0.0017,"nx":28,"ny":28,"refTime":"2024-07-14T03:00:00:Z","depth":0,"parameterNumber":2,"parameterNumberName":"U-component_of_WINDS"},"data":[0,0,0,0,0,0,0,0,0,0,0,0,0,0,0,0,0,0,0,0,0,0,0,0,0,0,0,0,0,0,0,0,0,0,0,0,0,0,0,0,0,0,0,0,0,0,0,0,0,0,0,0,0,0,0,0,0,0,-0.7141,-0.714,0,-0.7107,-0.7107,-0.7106,-0.7169,-0.7171,-0.7173,-0.7175,-0.7133,-0.713,-0.7127,0,0,0,0,0,0,0,0,0,0,0,0,0,-0.7251,-0.7249,-0.7141,-0.714,-0.714,-0.7107,-0.7107,-0.7106,-0.7168,-0.7171,-0.7173,-0.7176,-0.7134,-0.713,-0.7126,0,0,0,0,0,0,0,0,0,0,0,0,0,-0.7209,-0.7248,-0.7141,-0.7167,-0.7169,-0.7107,-0.7107,-0.7106,-0.7168,-0.7171,-0.7174,-0.7177,-0.7135,-0.713,-0.7126,-0.7035,0,0,-0.7112,-0.711,0,0,0,0,0,0,0,0,-0.7211,-0.7205,-0.7164,-0.7165,-0.7167,-0.7146,-0.713,-0.7082,-0.7167,-0.7168,-0.7175,-0.7178,-0.7134,-0.713,-0.7116,-0.7033,-0.7031,-0.7111,-0.7109,-0.7107,-0.7105,0,0,0,0,0,0,0,-0.7214,-0.7206,-0.7127,-0.7163,-0.7165,-0.7178,-0.7176,-0.7121,-0.7133,-0.7168,-0.7173,-0.7168,-0.7135,-0.712,-0.7116,-0.703,-0.7111,-0.7107,-0.7105,-0.7103,-0.6868,-0.6865,0,0,0,0,0,0,-0.7215,-0.7208,-0.7128,-0.7126,-0.7198,-0.7174,-0.7171,-0.7149,-0.7134,-0.7135,-0.7166,-0.7171,-0.7127,-0.7121,-0.7114,-0.7004,-0.7107,-0.7102,-0.71,-0.6871,-0.6867,-0.6863,0,0,0,0,0,0,-0.7217,-0.7207,-0.713,-0.7169,-0.716,-0.7168,-0.7144,-0.7147,-0.7132,-0.7132,-0.7134,-0.7148,-0.7129,-0.7121,-0.7054,-0.7004,-0.71,-0.7096,-0.6875,-0.687,-0.6865,-0.6784,0,0,0,0,0,0,-0.722,-0.7207,-0.7174,-0.7167,-0.7158,-0.7072,-0.7141,-0.7144,-0.7125,-0.7132,-0.7117,-0.7117,-0.7131,-0.7061,-0.7049,-0.6999,-0.7092,-0.688,-0.6873,-0.6867,-0.6792,-0.6777,-0.6765,0,0,0,0,0,-0.7223,-0.7152,-0.7172,-0.7162,-0.7117,-0.7069,-0.7063,-0.7082,-0.7121,-0.7086,-0.7086,-0.7118,-0.7012,-0.7053,-0.7041,-0.6989,-0.6883,-0.6875,-0.6867,-0.6798,-0.678,-0.6765,0,0,0,0,0,0,-0.7149,-0.7151,-0.7174,-0.7098,-0.7083,-0.7079,-0.7036,-0.7063,-0.7034,-0.7042,-0.7065,-0.7061,-0.6989,-0.6983,-0.7029,-0.6899,-0.6954,-0.6943,-0.6905,-0.6888,-0.6875,-0.6876,-0.7089,0,0,0,0,0,-0.7125,-0.7088,-0.7091,-0.7024,-0.7015,-0.7027,-0.7007,-0.7024,-0.7007,-0.7,-0.6996,-0.6977,-0.694,-0.6914,-0.688,-0.6793,-0.6788,-0.675,-0.6737,-0.6726,-0.6715,-0.6666,-0.6648,-0.6838,-0.6838,-0.6838,0,0,-0.7072,-0.7069,-0.7044,-0.7009,-0.6999,-0.6957,-0.7021,-0.6975,-0.6943,-0.6993,-0.6929,-0.6925,-0.6906,-0.6828,-0.6793,-0.682,-0.6663,-0.6716,-0.6707,-0.6702,-0.6656,-0.6638,-0.6622,-0.6832,-0.6833,-0.6834,0,0,-0.6955,-0.695,-0.6893,-0.6882,-0.6868,-0.6876,-0.6863,-0.6855,-0.6855,-0.6792,-0.6828,-0.679,-0.6726,-0.671,-0.6693,-0.6571,-0.6597,-0.656,-0.6488,-0.6439,-0.6424,-0.6411,-0.6364,-0.6347,-0.655,-0.6549,-0.6549,0,-0.689,-0.6832,-0.6859,-0.681,-0.6793,-0.6839,-0.6779,-0.6767,-0.6741,-0.6726,-0.6758,-0.6678,-0.6668,-0.6586,-0.6556,-0.6543,-0.6525,-0.6559,-0.6425,-0.6412,-0.64,-0.6355,-0.6338,-0.6545,-0.6545,-0.6546,-0.6546,0,-0.6752,-0.6711,-0.6666,-0.6642,-0.662,-0.6565,-0.6582,-0.6556,-0.6575,-0.6579,-0.6514,-0.6505,-0.6468,-0.6451,-0.6468,-0.637,-0.6387,-0.6422,-0.6477,-0.6377,-0.6335,-0.6318,-0.6538,-0.6539,-0.6541,-0.6542,0,0,-0.6583,-0.6577,-0.6559,-0.6548,-0.6536,-0.6503,-0.6451,-0.6418,-0.6394,-0.6375,-0.6329,-0.6274,-0.6306,-0.6287,-0.6304,-0.6262,-0.6162,-0.6301,-0.6301,-0.6272,-0.6049,-0.602,-0.6,-0.6181,-0.6178,-0.6176,-0.605,0,-0.6464,-0.6376,-0.6399,-0.631,-0.627,-0.6315,-0.6269,-0.6255,-0.6258,-0.6223,-0.6226,-0.6186,-0.6233,-0.6222,-0.6183,-0.6182,-0.6116,-0.6192,-0.6135,-0.6132,-0.6134,-0.5979,-0.5948,-0.5829,-0.6034,-0.6031,-0.6029,0,-0.6312,-0.6289,-0.6197,-0.6191,-0.6175,-0.6134,-0.6105,-0.6073,-0.6057,-0.6062,-0.6042,-0.6067,-0.6012,-0.6071,-0.5994,-0.6045,-0.6023,-0.6019,-0.6015,-0.6007,-0.6072,-0.5962,-0.5792,-0.5773,-0.6005,-0.6007,-0.6008,0,-0.6193,-0.614,-0.6077,-0.6067,-0.606,-0.6029,-0.6024,-0.6012,-0.5991,-0.5965,-0.5951,-0.5919,-0.5899,-0.5873,-0.5887,-0.5929,-0.5806,-0.5867,-0.5805,-0.5804,-0.5773,-0.5774,-0.5593,-0.5767,-0.5767,-0.5767,-0.5768,0,-0.6055,-0.5996,-0.6024,-0.5985,-0.5919,-0.5946,-0.588,-0.5879,-0.5869,-0.5828,-0.5865,-0.5826,-0.5849,-0.5811,-0.5822,-0.5754,-0.5747,-0.5747,-0.5749,-0.5741,-0.574,-0.5723,-0.573,-0.5763,-0.5764,-0.5765,-0.5765,0,-0.591,-0.5927,-0.5861,-0.586,-0.5859,-0.581,-0.5808,-0.577,-0.5778,-0.5726,-0.5715,-0.5725,-0.5682,-0.5695,-0.5648,-0.5655,-0.5569,-0.5584,-0.5574,-0.5576,-0.5512,-0.5517,-0.5311,-0.5283,-0.5478,-0.5477,-0.5475,0,-0.5818,-0.5774,-0.5769,-0.5746,-0.5739,-0.5702,-0.5681,-0.5706,-0.5682,-0.5662,-0.5625,-0.5587,-0.5556,-0.5485,-0.5486,-0.545,-0.5462,-0.5392,-0.5456,-0.5448,-0.5456,-0.5456,-0.545,-0.5378,-0.5376,-0.5374,-0.5372,0,-0.5653,-0.5664,-0.5634,-0.5606,-0.558,-0.5559,-0.5541,-0.5519,-0.5543,-0.5514,-0.5472,-0.5449,-0.5402,-0.5361,-0.5328,-0.532,-0.5348,-0.5353,-0.5336,-0.5324,-0.5319,-0.5317,-0.5535,-0.5356,-0.5358,-0.5359,-0.536,-0.5361,-0.5528,-0.5491,-0.5481,-0.5446,-0.5436,-0.5418,-0.5382,-0.5386,-0.5353,-0.5318,-0.5335,-0.5285,-0.527,-0.523,-0.5218,-0.5177,-0.5203,-0.518,-0.5173,-0.5165,-0.5155,-0.533,-0.5172,-0.5172,-0.5173,-0.5173,-0.5174,0,-0.5361,-0.5359,-0.5326,-0.5301,-0.5272,-0.5306,-0.5288,-0.526,-0.5217,-0.5203,-0.5173,-0.5123,-0.5084,-0.5084,-0.5047,-0.5014,-0.5026,-0.5003,-0.5003,-0.5,-0.5136,-0.5153,-0.4994,-0.4994,-0.4994,-0.4994,-0.4994,-0.4994,-0.5271,-0.5207,-0.5218,-0.5149,-0.5146,-0.51,-0.5086,-0.5068,-0.5057,-0.5001,-0.497,-0.4971,-0.4961,-0.4924,-0.4888,-0.4889,-0.4871,-0.4843,-0.4847,-0.4973,-0.4991,-0.5008,-0.5023,-0.484,-0.484,-0.4714,-0.4713,-0.4712]},{"header":{"parameterUnit":"m.s-1","parameterCategory":1,"la1":30.2991,"la2":30.254,"lo1":-89.0895,"lo2":-89.0444,"dy":0.0017,"dx":0.0017,"nx":28,"ny":28,"refTime":"2024-07-14T03:00:00:Z","depth":0,"parameterNumber":3,"parameterNumberName":"V-component_of_WINDS"},"data":[0,0,0,0,0,0,0,0,0,0,0,0,0,0,0,0,0,0,0,0,0,0,0,0,0,0,0,0,0,0,0,0,0,0,0,0,0,0,0,0,0,0,0,0,0,0,0,0,0,0,0,0,0,0,0,0,0,0,2.2705,2.2705,0,2.2638,2.2638,2.2637,2.2525,2.2523,2.2521,2.2519,2.2452,2.2452,2.2452,0,0,0,0,0,0,0,0,0,0,0,0,0,2.2738,2.2738,2.2705,2.2705,2.2704,2.2639,2.2638,2.2637,2.2525,2.2523,2.252,2.2518,2.2452,2.2452,2.2452,0,0,0,0,0,0,0,0,0,0,0,0,0,2.2703,2.2738,2.2706,2.264,2.2634,2.2639,2.2638,2.2636,2.2526,2.2523,2.252,2.2517,2.2452,2.2452,2.2452,2.2516,0,0,2.2453,2.2453,0,0,0,0,0,0,0,0,2.2705,2.2702,2.2651,2.2645,2.2637,2.2587,2.2624,2.2596,2.2527,2.2567,2.2519,2.2515,2.25,2.2496,2.249,2.2513,2.251,2.2453,2.2453,2.2453,2.2453,0,0,0,0,0,0,0,2.2708,2.2704,2.2679,2.265,2.2642,2.2615,2.2606,2.2619,2.2552,2.2563,2.2555,2.2548,2.2495,2.249,2.2488,2.2509,2.2453,2.2453,2.2453,2.2453,2.258,2.2583,0,0,0,0,0,0,2.272,2.2707,2.2681,2.2677,2.2664,2.2617,2.2607,2.2606,2.2551,2.254,2.2551,2.2544,2.2491,2.2487,2.2485,2.2555,2.2453,2.2454,2.2454,2.2577,2.2581,2.2584,0,0,0,0,0,0,2.2721,2.2718,2.2684,2.269,2.2683,2.2619,2.2619,2.2607,2.2601,2.2542,2.253,2.2558,2.2489,2.2484,2.2509,2.2551,2.2454,2.2454,2.2573,2.2578,2.2583,2.2697,0,0,0,0,0,0,2.2722,2.2719,2.2743,2.2691,2.2683,2.2709,2.2622,2.2608,2.2602,2.2591,2.2545,2.2535,2.2486,2.2509,2.2509,2.255,2.2454,2.2569,2.2575,2.2581,2.2689,2.2705,2.2719,0,0,0,0,0,2.2724,2.2778,2.2744,2.2742,2.2711,2.2712,2.2707,2.2649,2.2606,2.2628,2.259,2.2536,2.2547,2.2513,2.2512,2.2553,2.2566,2.2574,2.2581,2.2682,2.2702,2.2718,0,0,0,0,0,0,2.2837,2.277,2.2732,2.2771,2.2748,2.2693,2.272,2.2672,2.2661,2.2652,2.2581,2.2572,2.2605,2.2581,2.2545,2.2611,2.2548,2.2555,2.2626,2.2644,2.2658,2.2663,2.2454,0,0,0,0,0,2.2866,2.2872,2.2813,2.2853,2.2843,2.2784,2.2782,2.274,2.2713,2.2703,2.2666,2.2643,2.2641,2.2641,2.2636,2.2685,2.2673,2.2713,2.2728,2.274,2.2747,2.2771,2.2788,2.2608,2.2608,2.2608,0,0,2.2927,2.2891,2.2899,2.2875,2.2852,2.286,2.2777,2.2788,2.2793,2.2705,2.2725,2.2698,2.2667,2.2704,2.2719,2.2685,2.2795,2.275,2.276,2.276,2.278,2.2797,2.2813,2.2613,2.2612,2.2612,0,0,2.3041,2.3015,2.3045,2.3024,2.299,2.295,2.2958,2.291,2.2888,2.2907,2.2841,2.2846,2.2844,2.2825,2.2815,2.2922,2.2871,2.2923,2.3,2.3024,2.3038,2.305,2.3088,2.3102,2.293,2.293,2.293,0,2.3121,2.313,2.3067,2.3083,2.3074,2.2994,2.3024,2.3006,2.2973,2.2969,2.2932,2.2928,2.2901,2.2932,2.2959,2.2954,2.296,2.2927,2.3041,2.3052,2.3063,2.3098,2.3113,2.2937,2.2936,2.2935,2.2935,0,2.3229,2.3236,2.3265,2.3234,2.3229,2.3252,2.3193,2.3195,2.3154,2.3118,2.3139,2.3104,2.309,2.3095,2.3055,2.312,2.31,2.3054,2.2988,2.3087,2.3119,2.3132,2.2946,2.2943,2.2942,2.294,0,0,2.3412,2.3346,2.3358,2.3343,2.33,2.3304,2.3324,2.331,2.3313,2.3293,2.3307,2.3308,2.3264,2.3252,2.3209,2.323,2.3317,2.318,2.3178,2.3206,2.3387,2.3422,2.3439,2.3284,2.3286,2.3288,2.3389,0,2.3517,2.3546,2.349,2.3533,2.3538,2.3463,2.348,2.3456,2.3423,2.3423,2.3387,2.3388,2.333,2.3323,2.334,2.3303,2.3352,2.3295,2.3296,2.3297,2.3305,2.3455,2.3492,2.359,2.3401,2.3403,2.3405,0,2.3643,2.3629,2.3672,2.3626,2.3626,2.3642,2.3625,2.3626,2.3597,2.3572,2.356,2.3509,2.3525,2.3463,2.3484,2.3446,2.3443,2.3425,2.3427,2.3425,2.3356,2.3456,2.3619,2.3634,2.3424,2.3422,2.3421,0,2.3771,2.3763,2.3787,2.3777,2.3724,2.3737,2.3716,2.3684,2.3679,2.3664,2.366,2.3648,2.3641,2.3633,2.358,2.354,2.3607,2.3541,2.3586,2.3588,2.3603,2.3603,2.3768,2.3604,2.3603,2.3603,2.3603,0,2.3893,2.3923,2.3844,2.3859,2.389,2.3826,2.3858,2.3829,2.3801,2.3809,2.3744,2.3753,2.3683,2.3684,2.3643,2.3667,2.3664,2.3644,2.3633,2.365,2.3652,2.3646,2.3638,2.3607,2.3606,2.3605,2.3605,0,2.4041,2.399,2.4011,2.396,2.3948,2.3973,2.3928,2.394,2.3903,2.3915,2.3914,2.3856,2.3855,2.3801,2.3789,2.3761,2.3801,2.3778,2.3811,2.3803,2.3852,2.3848,2.4018,2.4037,2.3862,2.3863,2.3865,0,2.4122,2.4143,2.4094,2.4094,2.4076,2.4078,2.4073,2.4011,2.4008,2.3977,2.3993,2.3986,2.3977,2.3978,2.3935,2.3925,2.39,2.3961,2.3898,2.3915,2.39,2.39,2.3901,2.3974,2.3976,2.3978,2.3979,0,2.4271,2.4245,2.4239,2.4226,2.4221,2.4207,2.4189,2.4194,2.4126,2.4126,2.4124,2.4117,2.4104,2.4098,2.408,2.4058,2.4008,2.4,2.4009,2.4026,2.4045,2.4035,2.3846,2.3996,2.3994,2.3993,2.3992,2.3991,2.4387,2.4402,2.4369,2.4366,2.4346,2.4331,2.4339,2.4303,2.43,2.4285,2.4249,2.4252,2.4222,2.4193,2.4176,2.4177,2.4147,2.4161,2.4165,2.4169,2.4178,2.4045,2.4174,2.4173,2.4173,2.4172,2.4172,0,2.4532,2.4508,2.4505,2.4482,2.4479,2.4432,2.441,2.441,2.4414,2.4391,2.4383,2.438,2.4374,2.4331,2.432,2.433,2.4306,2.4329,2.4327,2.4323,2.4207,2.4199,2.4348,2.4348,2.4348,2.4348,2.4348,2.4348,2.4607,2.4629,2.4599,2.4611,2.4586,2.4588,2.458,2.4565,2.4546,2.4546,2.4541,2.4512,2.4481,2.4467,2.4459,2.4447,2.4446,2.4476,2.4456,2.4348,2.4331,2.4315,2.4307,2.4476,2.4476,2.4571,2.4572,2.4573]}]]